Hourly Data Report for November 26, 2004

SHERBROOKE A
QUEBEC

45°26'00.000" N
71°41'00.000" W
241.40 m
7028124
71610
YSC

Download Data

Hourly Data (November 2004)
Hourly Data Report for November 26, 2004
TIME
LST
Temp Definition
°C
Dew Point Definition
°C
Rel Hum Definition
%
Precip. Amount Definition
mm

Wind Dir Definition
10's deg

Wind Spd Definition
km/h
Visibility Definition
km
Stn Press Definition
kPa
Hmdx Definition


Wind Chill Definition


Weather Definition


00:00 -4.3 -8.7 71   29 32 15.0 97.17   -12 Snow
01:00 -4.8 -8.7 74   28 30 15.0 97.30   -13 Snow
02:00 -5.4 -8.5 79   29 30 1.8 97.46   -14 Snow
03:00 -5.7 -10.0 72   27 26 15.0 97.57   -13 Snow
04:00 -6.1 -9.3 78   27 24 3.1 97.69   -14 Snow
05:00 -7.1 -10.8 75   25 28 12.9 97.79   -15 Snow
06:00 -8.0 -12.4 71   26 26 15.0 97.91   -16 Snow
07:00 -8.1 -12.0 73   27 30 15.0 97.98   -17 Snow
08:00 -7.9 -12.6 69   26 26 24.1 98.09   -16 Mainly Clear
09:00 -7.2 -11.8 70   26 30 24.1 98.17   -16 Snow Showers
10:00 -6.1 -11.0 68   26 22 24.1 98.24   -13 Snow Showers
11:00 -5.4 -10.2 69   27 30 24.1 98.26   -14 Snow Showers
12:00 -4.2 -9.6 66   27 24 24.1 98.29   -11 Mostly Cloudy
13:00 -3.5 -9.3 64   26 26 24.1 98.35   -11 Mostly Cloudy
14:00 -2.8 -9.3 61   27 19 24.1 98.41   -9 Mainly Clear
15:00 -2.9 -9.4 61   27 24 24.1 98.50   -10 Mainly Clear
16:00 -3.6 -10.1 61   26 17 24.1 98.61   -9 Clear
17:00 -3.9 -10.4 61   25 11 24.1 98.73   -8 Clear
18:00 -4.3 -10.4 62   26 15 15.0 98.85   -10  
19:00 -4.3 -10.5 62   26 15 15.0 98.94   -10  
20:00 -4.5 -10.5 63   26 15 15.0 99.01   -10  
21:00 -5.1 -10.7 65   23 7 15.0 99.11   -8  
22:00 -5.9 -10.9 68   24 9 15.0 99.17   -10  
23:00 -6.5 -10.9 71   24 9 15.0 99.23   -11  

Notes on Data Quality.

Legend

  • E = Estimated
  • M = Missing
  • NA = Not Available*
  • [empty] = Indicates an unobserved value
Date modified: